Stations météo

Publicité
La Rochelle/Ile de Re, France (7316): Température de l'air & dewpoint: 18.09.2017 10:00:00 - 24.09.2017 10:00:00 (CEST)La Rochelle/Ile de Re, France (7316): Vitesse du vent & gusts: 18.09.2017 10:00:00 - 24.09.2017 10:00:00 (CEST)La Rochelle/Ile de Re, France (7316): Direction du vent: 18.09.2017 10:00:00 - 24.09.2017 10:00:00 (CEST)La Rochelle/Ile de Re, France (7316): reduced air pressure: 18.09.2017 10:00:00 - 24.09.2017 10:00:00 (CEST)La Rochelle/Ile de Re, France (7316): visibility: 18.09.2017 10:00:00 - 24.09.2017 10:00:00 (CEST)La Rochelle/Ile de Re, France (7316): Ensoleillement: 18.09.2017 10:00:00 - 24.09.2017 10:00:00 (CEST)La Rochelle/Ile de Re, France (7316): Quantités de précipitations: 18.09.2017 10:00:00 - 24.09.2017 10:00:00 (CEST)
Date & Time tt [°C] td [°C] ff [km/h] ff [knt] fx [km/h] fx [knt] dd ppp [hPa] vv [km] sd [min] rr [mm]
24.09.2017 10:00:00 17,4 16,4 6 3 10 6 WNW 1019,2 20 5 0,0
24.09.2017 09:00:00 17,1 16,6 0 0 9 5 N 1018,8 7 0 0,0
24.09.2017 08:00:00 16,0 15,4 6 4 13 7 WNW 1018,6 0,8 0 0,0
24.09.2017 07:00:00 16,0 14,9 6 3 9 5 W 1018,1 13 0 0,0
24.09.2017 06:00:00 15,1 13,6 6 3 10 5 S 1018,2 17 0 0,0
24.09.2017 05:00:00 16,0 14,4 6 3 15 8 S 1018,1 28 0 0,0
24.09.2017 04:00:00 16,5 13,6 9 5 13 7 S 1018,3 45 0 0,0
24.09.2017 03:00:00 15,2 12,9 8 4 11 6 SE 1018,7 49 0 0,0
24.09.2017 02:00:00 15,6 13,3 7 4 14 7 ESE 1018,7 46 0 0,0
24.09.2017 01:00:00 14,6 12,8 7 4 9 5 E 1018,8 37 0 0,0
24.09.2017 00:00:00 15,9 13,7 6 3 8 4 ENE 1018,8 52 0 0,0
23.09.2017 23:00:00 16,5 14,1 6 3 8 5 NNE 1018,7 40 0 0,0
23.09.2017 22:00:00 17,4 14,5 4 2 6 3 NNE 1018,6 38 0 0,0
23.09.2017 21:00:00 18,2 14,7 5 3 8 4 NW 1018,6 55 0 0,0
23.09.2017 20:00:00 19,4 14,2 5 3 10 6 W 1018,4 51 6 0,0
23.09.2017 19:00:00 22,1 14,0 9 5 16 9 SW 1018,3 59 60 0,0
23.09.2017 18:00:00 24,0 13,5 11 6 21 11 S 1018,0 56 60 0,0
23.09.2017 17:00:00 23,9 13,4 11 6 19 10 S 1018,1 48 60 0,0
23.09.2017 16:00:00 23,9 13,1 8 4 20 11 SSE 1018,5 60 60 0,0
23.09.2017 15:00:00 23,1 13,3 10 5 16 9 SSE 1019,1 60 60 0,0
23.09.2017 14:00:00 21,9 13,8 11 6 19 10 S 1019,5 60 60 0,0
23.09.2017 13:00:00 20,9 13,1 12 7 19 10 SE 1020,2 60 60 0,0
23.09.2017 12:00:00 19,1 13,1 11 6 17 9 E 1020,5 60 60 0,0
23.09.2017 11:00:00 17,4 12,7 10 5 21 12 E 1020,8 18 60 0,0
23.09.2017 10:00:00 14,7 11,7 17 9 22 12 E 1020,7 42 60 0,0
23.09.2017 09:00:00 11,9 9,8 14 8 19 11 E 1020,6 38 45 0,0
23.09.2017 08:00:00 10,6 8,9 15 8 18 10 E 1020,8 45 0 0,0
23.09.2017 07:00:00 10,4 8,2 14 8 20 11 E 1020,9 59 0 0,0
23.09.2017 06:00:00 10,4 7,8 14 8 20 11 E 1021,3 60 0 0,0
23.09.2017 05:00:00 11,4 7,9 16 9 21 12 E 1021,7 60 0 0,0
23.09.2017 04:00:00 11,6 7,5 13 7 21 12 E 1022,1 60 0 0,0
23.09.2017 03:00:00 12,1 7,6 15 8 21 11 E 1022,4 60 0 0,0
23.09.2017 02:00:00 11,2 7,7 11 6 16 9 ENE 1022,7 60 0 0,0
23.09.2017 01:00:00 12,2 8,7 12 7 19 10 NE 1023,1 60 0 0,0
23.09.2017 00:00:00 13,6 10,0 12 7 24 13 NNE 1023,3 60 0 0,0
22.09.2017 23:00:00 14,6 10,4 15 8 22 12 N 1023,5 60 0 0,0
22.09.2017 22:00:00 15,5 11,5 13 7 22 12 NNW 1023,3 52 0 0,0
22.09.2017 21:00:00 16,5 12,5 14 7 28 15 NW 1023,0 60 0 0,0
22.09.2017 20:00:00 16,7 12,4 20 11 32 18 WNW 1022,4 60 40 0,0
22.09.2017 19:00:00 17,4 12,1 23 12 31 17 WNW 1022,3 37 60 0,0
22.09.2017 18:00:00 18,0 12,2 26 14 34 18 WNW 1022,3 31 60 0,0
22.09.2017 17:00:00 18,9 11,9 22 12 27 15 WNW 1022,5 37 60 0,0
22.09.2017 16:00:00 18,8 11,4 19 10 24 13 WNW 1022,6 42 60 0,0
22.09.2017 15:00:00 18,9 10,5 17 9 26 14 WNW 1023,1 48 60 0,0
22.09.2017 14:00:00 19,2 10,2 11 6 23 13 N 1023,3 19 60 0,0
22.09.2017 13:00:00 18,4 12,4 15 8 26 14 N 1023,2 43 60 0,0
22.09.2017 12:00:00 16,3 11,9 14 8 23 12 N 1023,3 37 60 0,0
22.09.2017 11:00:00 15,0 11,6 11 6 24 13 NNE 1023,4 33 60 0,0
22.09.2017 10:00:00 13,9 11,8 15 8 24 13 N 1023,0 26 50 0,0
22.09.2017 09:00:00 12,4 11,3 16 9 25 13 N 1022,4 39 16 0,0
22.09.2017 08:00:00 11,8 10,5 16 9 27 15 N 1022,1 45 0 0,0
22.09.2017 07:00:00 12,4 11,0 16 9 27 14 N 1021,7 50 0 0,0
22.09.2017 06:00:00 13,8 11,8 18 10 27 14 NNW 1021,7 57 0 0,0
22.09.2017 05:00:00 14,5 12,2 15 8 26 14 N 1021,7 60 0 0,0
22.09.2017 04:00:00 14,6 12,5 17 9 28 15 N 1021,4 60 0 0,0
22.09.2017 03:00:00 14,6 12,6 20 11 29 16 N 1021,2 55 0 0,0
22.09.2017 02:00:00 15,7 13,9 16 9 24 13 NNW 1020,9 46 0 0,0
22.09.2017 01:00:00 15,6 13,8 16 9 25 14 NNW 1020,5 43 0 0,0
22.09.2017 00:00:00 16,1 14,1 19 10 27 15 NW 1020,2 60 0 0,0
21.09.2017 23:00:00 16,6 15,0 16 8 22 12 NNW 1019,9 59 0 0,0
21.09.2017 22:00:00 16,8 15,1 16 9 22 12 WNW 1019,7 57 0 0,0
21.09.2017 21:00:00 16,9 14,5 13 7 21 11 WNW 1019,4 60 0 0,0
21.09.2017 20:00:00 17,7 15,7 12 7 16 9 WNW 1019,0 60 0 0,0
21.09.2017 19:00:00 18,4 14,7 14 8 21 12 NW 1018,4 60 32 0,0
21.09.2017 18:00:00 20,2 14,3 13 7 21 12 WNW 1018,1 44 53 0,0
21.09.2017 17:00:00 20,6 13,5 15 8 22 12 W 1017,9 44 60 0,0
21.09.2017 16:00:00 21,0 11,1 14 8 21 12 WSW 1017,7 49 53 0,0
21.09.2017 15:00:00 20,4 9,0 16 9 21 12 W 1017,7 11 55 0,0
21.09.2017 14:00:00 21,1 10,9 11 6 17 9 SW 1017,7 59 60 0,0
21.09.2017 13:00:00 19,4 10,9 10 5 16 8 S 1017,8 59 60 0,0
21.09.2017 12:00:00 18,4 10,7 11 6 19 10 S 1017,8 60 60 0,0
21.09.2017 11:00:00 17,4 10,5 11 6 18 10 SSE 1017,8 60 60 0,0
21.09.2017 10:00:00 15,6 9,7 11 6 16 8 SSE 1017,9 49 60 0,0
21.09.2017 09:00:00 12,6 9,8 8 4 13 7 ESE 1017,6 45 44 0,0
21.09.2017 08:00:00 9,4 7,5 8 4 11 6 ESE 1017,5 48 0 0,0
21.09.2017 07:00:00 9,4 7,3 7 4 11 6 SE 1017,3 54 0 0,0
21.09.2017 06:00:00 10,1 7,7 8 4 9 5 ESE 1017,3 50 - 0,0
21.09.2017 05:00:00 10,8 8,0 5 3 9 5 ESE 1017,6 55 - -
21.09.2017 04:00:00 11,7 8,4 8 4 12 7 ESE 1018,0 60 0 0,0
21.09.2017 03:00:00 11,4 9,0 9 5 15 8 ESE 1018,3 50 - 0,0
21.09.2017 02:00:00 11,0 8,9 9 5 12 6 E 1018,6 36 0 0,0
21.09.2017 01:00:00 11,9 9,8 10 6 13 7 E 1018,7 44 0 0,0
21.09.2017 00:00:00 12,5 9,3 10 5 13 7 E 1019,0 60 0 0,0
20.09.2017 23:00:00 13,8 10,4 5 3 8 5 ENE 1019,1 56 0 0,0
20.09.2017 22:00:00 15,1 10,9 7 4 9 5 NNE 1019,4 60 0 0,0
20.09.2017 21:00:00 15,8 11,0 5 3 8 5 N 1019,8 58 0 0,0
20.09.2017 20:00:00 16,3 10,6 7 4 13 7 NNW 1019,9 60 44 0,0
20.09.2017 19:00:00 17,8 11,1 10 6 18 10 NNW 1020,1 59 60 0,0
20.09.2017 18:00:00 18,1 11,2 14 8 26 14 NW 1020,4 57 60 0,0
20.09.2017 17:00:00 18,6 10,9 18 10 22 12 NW 1021,0 60 60 0,0
20.09.2017 16:00:00 20,0 9,8 10 5 22 12 SSW 1021,7 52 60 0,0
20.09.2017 15:00:00 19,3 10,0 13 7 22 12 SSW 1022,0 55 60 0,0
20.09.2017 14:00:00 18,4 9,2 11 6 18 10 S 1022,6 60 - -
20.09.2017 13:00:00 18,3 9,6 6 3 10 6 S 1022,9 60 60 0,0
20.09.2017 12:00:00 17,5 10,6 0 0 9 5 N 1023,7 42 60 0,0
20.09.2017 11:00:00 16,2 11,1 3 2 10 5 SSE 1023,8 36 60 0,0
20.09.2017 10:00:00 13,5 11,7 6 3 10 5 E 1023,9 20 60 0,0
20.09.2017 09:00:00 11,5 11,0 4 2 5 3 E 1023,9 9 49 0,0
20.09.2017 08:00:00 9,7 9,1 3 2 5 3 ENE 1024,0 0,6 0 0,0
20.09.2017 07:00:00 10,4 9,8 4 2 7 4 NE 1023,8 16 0 0,0
20.09.2017 06:00:00 10,8 9,9 5 3 6 3 NE 1023,9 37 0 0,0
20.09.2017 05:00:00 11,4 10,3 5 3 7 4 NE 1024,0 47 0 0,0
20.09.2017 04:00:00 11,4 10,1 6 3 8 5 N 1024,4 59 0 0,0
20.09.2017 03:00:00 11,2 10,1 5 3 9 5 N 1024,7 57 0 0,0
20.09.2017 02:00:00 11,4 9,6 8 4 11 6 NNE 1024,9 60 0 0,0
20.09.2017 01:00:00 12,4 10,3 8 4 15 8 N 1025,2 60 - 0,0
20.09.2017 00:00:00 12,9 10,3 10 6 21 11 NNW 1025,5 60 0 0,0
19.09.2017 23:00:00 14,0 10,8 16 9 26 14 NNW 1025,4 60 0 0,0
19.09.2017 22:00:00 14,7 10,5 19 10 46 25 NW 1025,3 60 0 0,0
19.09.2017 21:00:00 15,2 9,1 21 11 36 19 NW 1024,8 60 0 0,0
19.09.2017 20:00:00 15,6 8,6 27 15 37 20 WNW 1024,6 59 46 0,0
19.09.2017 19:00:00 16,5 9,9 27 14 37 20 WNW 1024,2 31 60 0,0
19.09.2017 18:00:00 17,3 9,7 29 15 38 20 WNW 1023,9 25 60 0,0
19.09.2017 17:00:00 17,4 9,8 27 15 38 21 WNW 1024,2 24 60 0,0
19.09.2017 16:00:00 17,5 10,6 26 14 35 19 WNW 1024,3 28 60 0,0
19.09.2017 15:00:00 17,4 10,3 23 12 34 19 W 1024,5 33 60 0,0
19.09.2017 14:00:00 17,3 9,5 18 10 27 14 WNW 1024,7 38 60 0,0
19.09.2017 13:00:00 16,4 9,3 19 11 25 14 NW 1024,8 34 60 0,0
19.09.2017 12:00:00 15,7 10,0 19 10 27 15 NW 1024,9 35 44 0,0
19.09.2017 11:00:00 15,2 10,2 21 11 34 19 NW 1024,5 20 48 0,0
19.09.2017 10:00:00 13,9 10,3 27 14 37 20 NNW 1024,2 50 31 0,0
19.09.2017 09:00:00 13,0 10,7 22 12 30 16 NNW 1023,7 60 28 0,0
19.09.2017 08:00:00 12,4 10,6 16 8 24 13 N 1023,6 43 0 0,0
19.09.2017 07:00:00 11,4 10,5 8 4 13 7 N 1023,1 24 0 0,0
19.09.2017 06:00:00 11,7 10,4 10 6 14 8 N 1022,6 28 0 0,0
19.09.2017 05:00:00 12,5 11,1 8 4 17 9 N 1022,4 40 0 0,0
19.09.2017 04:00:00 14,2 12,2 13 7 22 12 NNW 1022,7 54 0 0,0
19.09.2017 03:00:00 14,6 12,5 18 10 25 14 NW 1022,9 59 0 0,0
19.09.2017 02:00:00 14,8 11,6 17 9 24 13 NW 1022,9 60 0 0,0
19.09.2017 01:00:00 14,1 11,3 14 8 21 12 NW 1023,0 59 0 0,0
19.09.2017 00:00:00 14,2 11,2 16 8 25 14 NW 1023,0 58 0 0,0
18.09.2017 23:00:00 14,6 10,8 18 10 29 16 NNW 1022,8 60 0 0,0
18.09.2017 22:00:00 14,8 10,6 22 12 33 18 NW 1022,5 60 0 0,0
18.09.2017 21:00:00 15,5 10,5 22 12 32 18 WNW 1021,8 60 0 0,0
18.09.2017 20:00:00 15,8 10,3 23 13 36 20 WNW 1021,3 59 28 0,0
18.09.2017 19:00:00 16,7 11,2 26 14 37 20 WNW 1020,7 37 60 0,0
18.09.2017 18:00:00 17,4 11,0 22 12 30 16 WNW 1020,0 40 60 0,0
18.09.2017 17:00:00 17,7 10,8 20 11 29 15 WNW 1020,0 51 60 0,0
18.09.2017 16:00:00 17,4 9,8 16 8 20 11 WNW 1020,0 58 60 0,0
18.09.2017 15:00:00 17,4 10,5 8 5 18 10 NW 1020,0 60 60 0,0
18.09.2017 14:00:00 16,4 10,0 11 6 18 10 NW 1020,1 58 60 0,0
18.09.2017 13:00:00 15,9 10,0 9 5 16 9 NW 1019,8 60 60 0,0
18.09.2017 12:00:00 15,3 9,6 9 5 16 9 NNW 1019,9 60 60 0,0
18.09.2017 11:00:00 14,9 10,1 6 4 11 6 NNE 1019,6 60 60 0,0
18.09.2017 10:00:00 13,4 10,0 5 3 7 4 E 1018,9 38 60 0,0

tt = Température de l'air
td = dewpoint
ff = Vitesse du vent
fx = gusts
dd = Direction du vent
ppp = reduced air pressure
vv = visibility
sd = Ensoleillement
rr = Quantités de précipitations

stations d'obs. à proximité